Tracking 31027 objects as of 19-Jul-2025
HD Live streaming from Space Station
objects crossing your sky now

COSMOS 2251 DEB

Track COSMOS 2251 DEB now!
10-day predictions


NORAD ID: 34327
Int'l Code: 1993-036NZ
Perigee: 596.1 km
Apogee: 646.1 km
Inclination: 74.0 °
Period: 97.0 minutes
Semi major axis: 6992 km
RCS: 0.0428 m2 (small)
Launch date: June 16, 1993
Source: Commonwealth of Independent States (former USSR) (CIS)
Launch site: PLESETSK MISSILE AND SPACE COMPLEX (PKMTR)

Note: This is SATELLITE DEBRIS
Your satellite tracking list
KORSAT 7
Track 1 satellite(s)




NASA's NSSDC Master Catalog

Two Line Element Set (TLE):
1 34327U 93036NZ  25199.49028564  .00006625  00000-0  77362-3 0  9991
2 34327  73.9964 105.7486 0035795 314.0161 222.5518 14.84883903873196
Source of the keplerian elements: AFSPC